Content
SEND FEEDBACK

Daily
Averages
Monthly
Summary
Canada

STE. ANNE DES MONTS, QUEBEC


Home > North America > Canada > Quebec
Elevation: 50 feet     Latitude: 49 08N     Longitude: 66 28W

WEATHER
 
SELECT A DAY
Number of Records: 147,601;   Date Range: 1/1/95 - 11/24/14
 
SHARE

PRINT THIS DATA

[ ← Previous Day ]
WEATHER ALMANAC - FEBRUARY 5, 2013
[ Next Day → ]
[ °C ]   °F
Weather ElementAverageHighLow
Temperature4.5 °F11.3 °F (1:00 am)-0.2 °F (9:00 am)
Dewpoint-1.1 °F6.4 °F (1:00 am)-6.2 °F (9:00 am)
Humidity76 %82 % (12:00 pm)61 % (7:00 pm)
Barometer29.72 in29.97 in (11:00 pm)29.35 in (1:00 am)
Wind Speed30.1 mph38 mph (5:00 am)
Wind Gust49.5 mph (5:00 am)
Weather ElementAverage
Wind DirectionWSW (253.8 °)

Weather ElementTotal
Precipitation0.15 in
Heating Degree Days59.5 (Base 65)
Averaged from 26 records on February 5, 2013
WEATHER CONDITIONS BREAKOUT
WIND DIRECTION BREAKOUT
WEATHER BY HOUR - FEBRUARY 5, 2013
[ °C ]   °F
Local TimeTemperatureDewpointHumidityBarometerVisibilityWind DirectionWind SpeedGust SpeedPrecipitationEventsConditions
1:00 AM11.0 °F6.0 °F74 %29.35 inWSW (250°)33.4 mph
1:00 AM11.3 °F6.4 °F81 %29.35 inWSW (250°)33.4 mph47.2 mph0.04 in
2:00 AM8.6 °F3.6 °F80 %29.39 inWSW (250°)36.8 mph48.3 mph0.07 in
3:00 AM6.6 °F1.0 °F78 %29.42 inWSW (250°)36.8 mph48.3 mph
4:00 AM5.2 °F0.1 °F80 %29.49 inWSW (250°)36.8 mph47.2 mph
5:00 AM3.0 °F-2.0 °F80 %29.52 inWSW (250°)38.0 mph49.5 mph0.04 in
7:00 AM0.7 °F-4.0 °F81 %29.60 inWSW (250°)38.0 mph46.0 mph
7:00 AM1.0 °F-4.0 °F70 %29.60 inWSW (250°)38.0 mph
8:00 AM0.5 °F-4.7 °F79 %29.65 inWest (260°)33.4 mph42.6 mph
9:00 AM-0.2 °F-6.2 °F76 %29.68 inWSW (250°)34.5 mph43.7 mph
10:00 AM-0.2 °F-5.4 °F79 %29.71 inWest (260°)34.5 mph47.2 mph
11:00 AM0.1 °F-4.5 °F81 %29.75 inWest (260°)31.1 mph40.3 mph
12:00 PM0.3 °F-4.0 °F82 %29.75 inWSW (250°)35.7 mph42.6 mph
1:00 PM1.2 °F-3.3 °F81 %29.78 inWest (260°)32.2 mph42.6 mph
1:00 PM1.0 °F-3.0 °F73 %29.78 inWest (260°)32.2 mph
2:00 PM3.0 °F-3.1 °F76 %29.79 inWSW (250°)31.1 mph39.1 mph
3:00 PM4.8 °F0.5 °F82 %29.82 inWSW (250°)31.1 mph39.1 mph
4:00 PM4.5 °F-1.1 °F78 %29.84 inSW (230°)19.6 mph25.3 mph
5:00 PM4.3 °F-1.7 °F76 %29.87 inSW (220°)17.3 mph24.2 mph
6:00 PM5.5 °F-0.2 °F77 %29.89 inSW (230°)17.3 mph25.3 mph
7:00 PM7.7 °F0.9 °F74 %29.91 inWest (260°)25.3 mph36.8 mph
7:00 PM8.0 °F1.0 °F61 %29.91 inWest (260°)25.3 mph
8:00 PM8.1 °F1.6 °F75 %29.92 inWest (270°)25.3 mph32.2 mph
9:00 PM7.5 °F-0.9 °F68 %29.94 inWest (280°)24.2 mph31.1 mph
10:00 PM7.5 °F0.0 °F71 %29.96 inWest (280°)23.0 mph29.9 mph
11:00 PM7.2 °F-2.7 °F64 %29.97 inWest (270°)18.4 mph24.2 mph
Hourly data recorded from CWSG, located miles away from Ste. Anne Des Monts, Quebec







STORIES FROM OUR PARTNERS